This demonstration page uses our WeatherBlox Daily Observations layout. Learn more.

Hourly Observations for January 8, 2015

Temp ( °F °C ) Dew Point ( °F °C ) Humidity (%) Winds ( mph kmh ) Pressure ( in mb ) Visibility ( mi km ) Precip ( " mm )
12:15 am 00:15 Clear 8 -13.4 -2 -19.1 63 63 SSW 23 37 30.62 1037 10 16.0934 0 0
12:35 am 00:35 Clear 8 -13.1 -2 -19 62 62 S 20 31 30.59 1036 10 16.0934 0 0
12:55 am 00:55 Clear 9 -13 -1 -18.5 64 64 S 17 28 30.56 1035 10 16.0934 0 0
1:15 am 01:15 Clear 9 -12.6 -1 -18.1 64 64 SSW 20 31 30.56 1035 10 16.0934 0 0
1:35 am 01:35 Clear 9 -12.6 0 -18 64 64 SSW 21 33 30.5 1033 10 16.0934 0 0
1:55 am 01:55 Clear 9 -13 0 -18 66 66 SSW 20 31 30.5 1033 10 16.0934 0 0
2:15 am 02:15 Clear 10 -12.3 1 -17.4 66 66 SSW 22 35 30.45 1031 10 16.0934 0 0
2:35 am 02:35 Clear 10 -12 1 -17 67 67 SSW 21 33 30.45 1031 10 16.0934 0 0
2:55 am 02:55 Clear 10 -12 1 -17 67 67 S 23 37 30.39 1029 10 16.0934 0 0
3:15 am 03:15 Clear 11 -11.8 2 -16.6 68 68 SSW 23 37 30.39 1029 10 16.0934 0 0
3:35 am 03:35 Clear 10 -12 2 -16.5 69 69 S 21 33 30.36 1028 10 16.0934 0 0
3:55 am 03:55 Clear 10 -12 3 -16.3 71 71 S 21 33 30.36 1028 10 16.0934 0 0
4:15 am 04:15 Clear 11 -11.8 3 -16.1 71 71 SSW 21 33 30.36 1028 10 16.0934 0 0
4:35 am 04:35 Clear 11 -11.5 4 -15.7 71 71 S 13 20 30.33 1027 10 16.0934 0 0
4:55 am 04:55 Clear 12 -11.2 4 -15.5 71 71 SSW 17 28 30.3 1026 10 16.0934 0 0
5:15 am 05:15 Clear 12 -11.2 4 -15.3 72 72 SSW 15 24 30.27 1025 10 16.0934 0 0
5:35 am 05:35 Clear 12 -11.2 5 -15.2 73 73 S 17 28 30.24 1024 10 16.0934 0 0
5:55 am 05:55 Clear 12 -11.2 5 -15.1 73 73 S 17 28 30.21 1023 10 16.0934 0 0
6:15 am 06:15 Clear 12 -11 5 -14.9 73 73 S 17 28 30.18 1022 10 16.0934 0 0
6:35 am 06:35 Clear 13 -10.6 6 -14.5 73 73 S 18 30 30.15 1021 10 16.0934 0 0
6:55 am 06:55 Clear 13 -10.6 6 -14.5 73 73 S 20 31 30.15 1021 10 16.0934 0 0
7:15 am 07:15 Clear 13 -10.3 7 -14.1 74 74 SSW 15 24 30.15 1021 10 16.0934 0 0
7:35 am 07:35 Partly Cloudy 14 -10 8 -13.6 75 75 SSW 14 22 30.15 1021 10 16.0934 0 0
7:55 am 07:55 Mostly Cloudy 15 -9.5 8 -13.1 75 75 SSW 13 20 30.12 1020 10 16.0934 0 0
8:15 am 08:15 Partly Cloudy 16 -9 9 -12.6 75 75 SSW 10 17 30.15 1021 10 16.0934 0 0
8:35 am 08:35 Mostly Cloudy 16 -8.7 10 -12.1 77 77 SW 13 20 30.15 1021 10 16.0934 0 0
8:55 am 08:55 Cloudy 18 -7.9 11 -11.4 76 76 SW 13 20 30.15 1021 10 16.0934 0 0
9:15 am 09:15 Partly Cloudy 19 -7.5 12 -11 76 76 WSW 8 13 30.15 1021 10 16.0934 0 0
9:35 am 09:35 Partly Cloudy 21 -6.3 14 -10 75 75 WSW 7 11 30.12 1020 10 16.0934 0 0
9:55 am 09:55 Partly Cloudy 23 -5.1 15 -9.4 72 72 WSW 7 11 30.12 1020 10 16.0934 0 0
10:15 am 10:15 Partly Cloudy 26 -3.6 16 -8.7 68 68 W 7 11 30.12 1020 10 16.0934 0 0
10:35 am 10:35 Partly Cloudy 26 -3.5 17 -8.4 69 69 W 9 15 30.09 1019 10 16.0934 0 0
10:55 am 10:55 Sunny 29 -1.6 19 -7.4 65 65 W 9 15 30.09 1019 10 16.0934 0 0
11:15 am 11:15 Sunny 31 -0.5 20 -6.4 65 65 WNW 8 13 30.06 1018 10 16.0934 0 0
11:35 am 11:35 Sunny 32 -0.1 22 -5.8 66 66 WNW 12 19 30.09 1019 10 16.0934 0 0
11:55 am 11:55 Sunny 34 0.9 23 -5 65 65 WNW 7 11 30.06 1018 10 16.0934 0 0
12:15 pm 12:15 Sunny 36 2 25 -4 65 65 NW 7 11 30.06 1018 10 16.0934 0 0
12:35 pm 12:35 Sunny 39 4 28 -2.3 64 64 NW 12 19 30.03 1017 10 16.0934 0 0
12:55 pm 12:55 Sunny 41 4.9 29 -1.9 62 62 WNW 9 15 30.06 1018 10 16.0934 0 0
1:15 pm 13:15 Sunny 42 5.3 30 -1.2 63 63 NW 9 15 30.06 1018 10 16.0934 0 0
1:35 pm 13:35 Sunny 43 6.1 31 -0.5 63 63 NNW 14 22 30.03 1017 10 16.0934 0 0
1:55 pm 13:55 Sunny 43 6 31 -0.6 63 63 NNW 20 31 30.03 1017 10 16.0934 0 0
2:15 pm 14:15 Sunny 42 5.8 31 -0.6 64 64 NNW 17 28 30.03 1017 10 16.0934 0 0
2:35 pm 14:35 Sunny 41 5.1 31 -0.3 68 68 N 21 33 30.09 1019 10 16.0934 0 0
2:55 pm 14:55 Sunny 41 4.8 31 -0.8 67 67 N 17 28 30.09 1019 10 16.0934 0 0
3:15 pm 15:15 Sunny with Thunderstorms 40 4.5 30 -1.3 66 66 N 20 31 30.12 1020 10 16.0934 0 0
3:55 pm 15:55 Mostly Cloudy 37 3 28 -2.2 69 69 NNW 23 37 30.21 1023 10 16.0934 0.03 0.762
4:15 pm 16:15 Mostly Cloudy 35 1.4 26 -3.3 71 71 NNW 30 48 30.21 1023 10 16.0934 0 0
4:35 pm 16:35 Mostly Cloudy 32 0.1 23 -5.1 68 68 N 25 41 30.27 1025 10 16.0934 0 0
4:55 pm 16:55 Cloudy 31 -0.6 20 -6.9 63 63 N 30 48 30.3 1026 10 16.0934 0 0
5:15 pm 17:15 Cloudy 30 -1.2 20 -6.8 66 66 N 25 41 30.3 1026 10 16.0934 0 0
5:35 pm 17:35 Cloudy 28 -2 18 -7.6 66 66 N 25 41 30.33 1027 10 16.0934 0 0
5:55 pm 17:55 Cloudy 27 -2.6 17 -8.6 64 64 N 26 43 30.36 1028 10 16.0934 0 0
6:15 pm 18:15 Cloudy 26 -3.2 14 -9.9 60 60 N 28 44 30.36 1028 10 16.0934 0 0
6:35 pm 18:35 Cloudy 25 -3.9 14 -9.9 63 63 N 26 43 30.36 1028 10 16.0934 0 0
6:55 pm 18:55 Mostly Cloudy 23 -4.8 13 -10.7 64 64 N 22 35 30.42 1030 10 16.0934 0 0
7:15 pm 19:15 Partly Cloudy 22 -5.6 12 -11.2 65 65 N 24 39 30.48 1032 10 16.0934 0 0
7:35 pm 19:35 Clear 21 -6.2 9 -12.7 60 60 N 23 37 30.48 1032 10 16.0934 0 0
7:55 pm 19:55 Partly Cloudy 20 -6.5 9 -12.6 62 62 N 16 26 30.5 1033 10 16.0934 0 0
8:15 pm 20:15 Mostly Cloudy 20 -6.6 10 -12.4 64 64 NNW 15 24 30.53 1034 10 16.0934 0 0
8:35 pm 20:35 Partly Cloudy 19 -7 9 -12.7 64 64 NNW 14 22 30.53 1034 10 16.0934 0 0
8:55 pm 20:55 Clear 19 -7 9 -12.8 64 64 N 21 33 30.56 1035 10 16.0934 0 0
9:15 pm 21:15 Clear 19 -7.5 9 -13 65 65 N 14 22 30.56 1035 10 16.0934 0 0
9:35 pm 21:35 Clear 18 -7.7 9 -12.7 68 68 N 15 24 30.56 1035 10 16.0934 0 0
9:55 pm 21:55 Clear 18 -7.8 9 -13 67 67 NNW 13 20 30.56 1035 10 16.0934 0 0
10:15 pm 22:15 Clear 18 -7.6 9 -12.9 66 66 NNW 10 17 30.59 1036 10 16.0934 0 0
10:35 pm 22:35 Clear 18 -7.7 8 -13.3 65 65 NNW 18 30 30.59 1036 10 16.0934 0 0
10:55 pm 22:55 Clear 18 -8 7 -14 62 62 NNW 13 20 30.59 1036 10 16.0934 0 0
11:15 pm 23:15 Clear 18 -7.6 7 -14 61 61 NNW 14 22 30.62 1037 10 16.0934 0 0
11:35 pm 23:35 Clear 18 -7.6 7 -13.8 61 61 NNW 18 30 30.62 1037 10 16.0934 0 0
11:55 pm 23:55 Clear 18 -8 3 -16.2 52 52 NNW 17 28 30.62 1037 10 16.0934 0 0

Powered by AerisWeather